Overview Statistics Trail Chart Weather Telemetry Raw packets
 

This is the latest recevied weather packets stored in our database for station/object KE5QKR. If no packets are shown the sender has not sent any weather packets the latest 10 day(s).

<< 3 4 5 6 7 8 9 >>
Time Temp. Humidity Pressure Rain* Wind** Luminosity Snow
1777931781 24.44° C 49% 1012.9 hPa 0 mm - 49 W/m² -
1777931479 24.44° C 43% 1013 hPa 0 mm - 77 W/m² -
1777931174 25° C 47% 1013.5 hPa 0 mm - 202 W/m² -
1777930871 25° C 47% 1013.4 hPa 0 mm - 389 W/m² -
1777930567 25° C 47% 1013.4 hPa 0 mm - 422 W/m² -
1777930264 25° C 45% 1013.3 hPa 0 mm - 438 W/m² -
1777929960 24.44° C 45% 1013.1 hPa 0 mm - 132 W/m² -
1777929658 25° C 45% 1013.4 hPa 0 mm - 480 W/m² -
1777929354 25° C 47% 1013.4 hPa 0 mm - 497 W/m² -
1777929051 25° C 47% 1013.2 hPa 0 mm - 358 W/m² -
1777928749 25° C 47% 1013.2 hPa 0 mm - 533 W/m² -
1777928445 25° C 48% 1013.5 hPa 0 mm - 538 W/m² -
1777928143 25.56° C 46% 1013.4 hPa 0 mm - 550 W/m² -
1777927841 25.56° C 48% 1013.4 hPa 0 mm - 565 W/m² -
1777927538 25° C 48% 1013.5 hPa 0 mm - 587 W/m² -
1777927238 25° C 49% 1013.6 hPa 0 mm - 558 W/m² -
1777926935 25° C 49% 1013.8 hPa 0 mm - 471 W/m² -
1777926632 25.56° C 49% 1013.9 hPa 0 mm - 520 W/m² -
1777926327 25.56° C 46% 1013.8 hPa 0 mm - 639 W/m² -
1777926025 25.56° C 47% 1014 hPa 0 mm - 657 W/m² -
1777925722 25.56° C 50% 1014.1 hPa 0 mm - 555 W/m² -
1777925420 25° C 49% 1014.4 hPa 0 mm - 669 W/m² -
1777925115 25.56° C 48% 1014.3 hPa 0 mm - 676 W/m² -
1777924813 25.56° C 47% 1014.4 hPa 0 mm - 695 W/m² -
1777924509 25° C 46% 1014.3 hPa 0 mm - 707 W/m² -

* Rain latest hour (hover to see other rain measurements)
** Current wind speed in m/s (hover to see current wind gust speed)